Weather in Nikiforovskaya

Russia / Vologda Oblast     60°39′16″N   43°12′09″E
temp.,
°C
wind,
m/s
gust,
m/s
humid.,
%
clouds,
%
prec.,
mm/h
press.,
hPa
HPBL,
m
25 february, thu
thu2500:00−16s4993100 0.1 1024511
03:00−16s41095100 0.7 1021583
06:00−16sse51095100 1.2 1016599
09:00−16sse4995100 3.1 1014587
12:00−15sse4792100 0.8 1013614
15:00−14sse3691100 1.0 1014608
18:00−16se2695100 0.1 1014225
21:00−18se279782 0.1 1015176
26 february, fri
fri2600:00−20se379850 0.0 1014162
03:00−20sse389844 0.0 1013214
06:00−20sse4109552 0.0 1011297
09:00−18se4109376 0.0 1008357
12:00−15se51091100 0.0 1005462
15:00−13ese61194100 0.5 1003508
18:00−14ese51194100 1.8 1000604
21:00−14ese41093100 2.4 1001604
27 february, sat
sat2700:00−14e4894100 0.6 1001578
03:00−15ene3795100 0.9 1004441
06:00−17ne269695 0.0 1005196
09:00−17ne259497 0.0 1007236
12:00−14nne249089 0.0 1008406
15:00−13nne249093 0.0 1010470
18:00−16nne229699 0.0 101120
21:00−19ne119774 0.0 101320
28 february, sun
sun2800:00−17nne119785 0.0 101322
03:00−18nne129776 0.1 101420
06:00−18n119876 0.1 101520
09:00−16nw119574 0.1 1016118
12:00−11nw128990 0.0 1016321
15:00−9nw139295 0.1 1017409
18:00−11nw1197100 0.1 101721
21:00−12sw0197100 0.1 101921
1 march, mon
mon100:00−12s119899 0.1 101921
03:00−10ssw129799 0.1 102023
06:00−11wsw2397100 0.1 102047
09:00−9sw389465 0.1 1019273
12:00−5sw489391 0.0 1016530
15:00−3sw5119195 0.2 1013665
18:00−2wsw51296100 0.9 1009752
21:00+1w51298100 1.6 1007790